Tracking 28081 objects as of 27-Sep-2023
HD Live streaming from Space Station
objects crossing your sky now

APRIZESAT 1

Track APRIZESAT 1 now!
10-day predictions
APRIZESAT 1 is classified as:


NORAD ID: 28372
Int'l Code: 2004-025G
Perigee: 700.2 km
Apogee: 763.5 km
Inclination: 98.6 °
Period: 99.3 minutes
Semi major axis: 7102 km
RCS: 0.0588 m2 (small)
Launch date: June 29, 2004
Source: United States (US)
Launch site: TYURATAM MISSILE AND SPACE COMPLEX (TTMTR)

Messaging services.
Your satellite tracking list
Your tracking list is empty




NASA's NSSDC Master Catalog

Two Line Element Set (TLE):
1 28372U 04025G   23269.87251683  .00000817  00000-0  21938-3 0  9997
2 28372  98.5576 241.2787 0044561 298.3358  61.3344 14.50274573 17707
Source of the keplerian elements: AFSPC